Regional Weather Roundup
Issued by NWS Charleston, SC

Current Version | Previous Version | Graphics & Text | Print | Product List | Glossary On
Versions: 1 2 3 4 5 6 7 8 9 10 11 12 13 14 15 16 17 18 19 20 21 22 23 24 25 26 27 28 29 30 31 32 33 34 35 36 37 38 39 40 41 42 43 44 45 46 47 48 49 50
000 ASUS42 KCHS 311026 RWRCHS REGIONAL WEATHER ROUNDUP NATIONAL WEATHER SERVICE CHARLESTON SC 500 AM EST SAT JAN 31 2015 NOTE: "FAIR" INDICATES FEW OR NO CLOUDS BELOW 12,000 FEET WITH NO SIGNIFICANT WEATHER AND/OR OBSTRUCTIONS TO VISIBILITY. NOT ALL STATIONS ARE QUALITY CONTROLLED BY THE NATIONAL WEATHER SERVICE. USE DATA WITH CAUTION...ESPECIALLY DEWPOINT OBSERVATIONS. SCZ027-030-031-034>040-042>050-311100- ...SOUTHEAST SOUTH CAROLINA... CITY SKY/WX TMP DP RH WIND PRES REMARKS N CHARLESTON CLEAR 32 17 54 N7 30.34R WCI 26 WATERFRONT PRK N/A 37 N/A N/A N13 N/A WCI 29 MOUNT PLEASANT FAIR 34 19 55 N3 30.34R PINOPOLIS N/A 39 18 41 NE9 30.26R WCI 33 MONCKS CORNER FAIR 37 14 38 NE6 30.34S WCI 33 SUMMERVILLE NOT AVBL BEAUFORT MCAS CLEAR 34 25 69 N6 30.34R WCI 29 BEAUFORT ARPT FAIR 36 28 75 N6 30.33S WCI 31 HILTON HEAD IS NOT AVBL WALTERBORO SUNNY 28 N/A N/A CALM 30.35S ALLENDALE FAIR 28 23 80 CALM 30.34S ...SOUTHERN MIDLANDS AND PEE DEE... CITY SKY/WX TMP DP RH WIND PRES REMARKS GEORGETOWN NOT AVBL KINGSTREE NOT AVBL ORANGEBURG CLEAR 28 23 81 CALM 30.34S BARNWELL FAIR 30 23 74 CALM 30.35S AIKEN FAIR 28 21 74 CALM 30.36S MANNING FAIR 30 19 64 CALM 30.34S COLUMBIA CLEAR 25 19 78 CALM 30.34S SUMTER CLEAR 25 14 64 NE8 30.31F WCI 16 FLORENCE CLEAR 29 12 49 N5 30.33S WCI 24 MYRTLE BEACH CLEAR 30 12 47 NW6 30.36R WCI 24 N MYRTLE BEACH CLEAR 30 12 47 N6 30.33R WCI 24 $$ GAZ063-065-086>088-099>101-113>116-118-119-134>141-150-311100- ...SOUTHEAST GEORGIA... CITY SKY/WX TMP DP RH WIND PRES REMARKS SAVANNAH ARPT CLEAR 32 26 78 N3 30.34S HUNTER AAF CLEAR 37 26 64 N5 30.31S WCI 33 FORT STEWART CLEAR 33 26 77 NE2 30.32S STATESBORO CLEAR 29 26 87 CALM 30.34S SYLVANIA SUNNY 29 27 92 CALM 30.35S CLAXTON FAIR 30 30 100 CALM 30.34S ...CSRA...CENTRAL AND FAR SOUTHEAST GEORGIA... CITY SKY/WX TMP DP RH WIND PRES REMARKS THOMSON CLEAR 26 26 99 CALM 30.39R AUGUSTA-BUSH CLEAR 24 19 81 CALM 30.36R AUGUSTA-DANIEL CLEAR 34 17 50 N5 30.35R WCI 30 SWAINSBORO FAIR 36 12 38 NE3 30.35R VIDALIA CLEAR 34 28 80 N5 30.33S WCI 30 EASTMAN FAIR 28 28 100 CALM 30.36R HAZLEHURST FAIR 36 29 78 CALM 30.32R ALMA PTCLDY 36 26 67 N5 30.30F WCI 32 WAYCROSS PTCLDY 40 31 69 NE3 30.31R JESUP FAIR 37 32 81 CALM 30.32S BAXLEY FAIR 36 30 80 N3 30.31S BRUNSWICK CLEAR 41 30 65 N6 30.31S SAINT SIMONS CLEAR 39 31 72 N7 30.30S WCI 34 $$ SCZ027-028-034-036>038-045-046-048>050-GAZ119-141-311100- ...LAKE AND SUPPLEMENTAL COASTAL OBSERVATIONS... STATION/POSITION TIME TEMP WIND PRES WAVE SWELL AIR SEA DIR/SP/G HT/PER HT/PER/DIR (UTC) (F) (DEG/KT/KT) (MB) (FT/S) (FT/S/D) UPR LAKE MARION NOT AVBL WINYAH BAY 0900 34 350/ 3 1025.0 LAKE MURRAY 0900 32 CALM / 1 1026.8S ACE BASIN NERRS NOT AVBL FORT PULASKI 1000 42 52 360/ 7/ 8 1027.3R SAPELO ISLAND 1000 40 30/ 5 1026.0S $$ ANZ835-935-AMZ111-154-330-350-352-354-370-450-454-472-311100- ...C-MAN AND BUOY OBSERVATIONS... STATION/POSITION TIME TEMP WIND PRES WAVE SWELL AIR SEA DIR/SP/G HT/PER HT/PER/DIR (UTC) (F) (DEG/KT/KT) (MB) (FT/S) (FT/S/D) BUOY 41004 0950 48 67 10/ 21/ 25 1025.1R 6/ 7 2/11 BUOY 41008 0950 50 54 40/ 16/ 17 1025.7R 4/ 6 FOLLY BEACH CMAN 1000 39 10/ 16/ 18 1027.4R CAPERS NEARSHORE 0900 40 30/ 17/ 23 N/A FRIPP NEARSHORE 0900 45 40/ 17/ 21 1025.2F STATION/POSITION TIME TEMP WIND PRES WAVE SWELL AIR SEA DIR/SP/G HT/PER HT/PER/DIR (UTC) (F) (DEG/KT/KT) (MB) (FT/S) (FT/S/D) 5E ST. MARYS GA 0921 56 N/A 3/ 4 FRYING PAN BUOY 0950 39 62 350/ 21/ 27 1026.2R 7/ 6 2/ 80/ 9 BUOY 41025 0950 35 63 330/ 27/ 33 1022.8R 8/ 5 3/ 20/11 CAPE LOOKOUT NC 1000 32 340/ 21/ 25 1025.4R BUOY 41002 0950 53 71 340/ 21/ 31 1021.0R 14/ 9 2/ 90/15 BUOY 41010 0920 62 73 10/ 17/ 23 1022.0S ST AUGUSTINE FL 1000 55 20/ 16/ 17 1025.2S $$

USA.gov is the U.S. government's official web portal to all federal, state and local government web resources and services.